EW8032 Weather Reports


Display with metric or nautical units.
time (UTC)temp
F
wind
direction
speed
MPH
gust
MPH
rain 1hr
in
rain 24hr
in
rain mn
in
humidity
%
barometer
mb
20260905152216 90 83 5.0 12.0 0.00 0.00 0.00 39 1020.7
20260905152043 90 103 6.0 12.0 0.00 0.00 0.00 39 1020.8
20260905151639 90 64 6.0 12.0 0.00 0.00 0.00 39 1020.8
20260905151455 90 46 7.0 12.0 0.00 0.00 0.00 39 1020.7
20260905151323 90 55 7.0 12.0 0.00 0.00 0.00 39 1020.8
20260905151259 90 41 7.0 12.0 0.00 0.00 0.00 39 1020.7
20260905151132 90 51 3.0 10.0 0.00 0.00 0.00 40 1020.9
20260905150957 90 351 6.0 10.0 0.00 0.00 0.00 40 1020.9
20260905150835 90 51 4.0 12.0 0.00 0.00 0.00 40 1020.9
20260905150755 90 100 3.0 12.0 0.00 0.00 0.00 40 1020.9
20260905150625 90 51 6.0 12.0 0.00 0.00 0.00 40 1021.0
20260905150455 90 79 8.0 12.0 0.00 0.00 0.00 40 1021.0
20260905150423 90 80 8.0 12.0 0.00 0.00 0.00 39 1021.0
20260905150253 90 52 6.0 12.0 0.00 0.00 0.00 39 1021.1
20260905150112 90 87 6.0 12.0 0.00 0.00 0.00 39 1021.1
20260905145950 89 82 3.0 9.0 0.00 0.00 0.00 40 1021.1
20260905145913 89 119 3.0 9.0 0.00 0.00 0.00 40 1021.2
20260905145735 89 82 6.0 9.0 0.00 0.00 0.00 40 1021.3
20260905145603 89 128 6.0 9.0 0.00 0.00 0.00 37 1021.3
20260905145152 89 84 5.0 9.0 0.00 0.00 0.00 39 1021.3
20260905145020 89 59 4.0 9.0 0.00 0.00 0.00 39 1021.3
20260905144906 89 126 3.0 8.0 0.00 0.00 0.00 41 1021.3
20260905144826 89 71 4.0 8.0 0.00 0.00 0.00 40 1021.2
20260905144643 89 57 5.0 11.0 0.00 0.00 0.00 40 1021.4
20260905144516 89 61 4.0 11.0 0.00 0.00 0.00 40 1021.4
20260905144442 89 56 4.0 11.0 0.00 0.00 0.00 40 1021.4
20260905143922 89 71 6.0 11.0 0.00 0.00 0.00 41 1021.5
20260905143813 89 96 6.0 11.0 0.00 0.00 0.00 40 1021.5
20260905143723 89 71 4.0 11.0 0.00 0.00 0.00 41 1021.5
20260905143159 88 75 5.0 11.0 0.00 0.00 0.00 42 1021.5
20260905143141 88 39 5.0 11.0 0.00 0.00 0.00 42 1021.5
20260905143005 88 71 7.0 11.0 0.00 0.00 0.00 41 1021.5
20260905142519 89 99 5.0 9.0 0.00 0.00 0.00 41 1021.6
20260905142421 89 102 4.0 10.0 0.00 0.00 0.00 41 1021.6
20260905142236 89 59 5.0 10.0 0.00 0.00 0.00 41 1021.7
20260905141843 88 72 3.0 10.0 0.00 0.00 0.00 41 1021.7
20260905141654 88 67 4.0 10.0 0.00 0.00 0.00 42 1021.6
20260905141210 88 84 6.0 11.0 0.00 0.00 0.00 42 1021.7
20260905141105 88 65 5.0 11.0 0.00 0.00 0.00 42 1021.8
20260905140920 88 36 6.0 11.0 0.00 0.00 0.00 42 1021.7
20260905140733 88 52 6.0 11.0 0.00 0.00 0.00 43 1021.9
20260905140546 88 48 7.0 11.0 0.00 0.00 0.00 43 1021.9
20260905140400 88 93 7.0 11.0 0.00 0.00 0.00 43 1021.9
20260905140303 88 85 6.0 10.0 0.00 0.00 0.00 44 1021.9
20260905140203 88 84 4.0 10.0 0.00 0.00 0.00 44 1021.9
20260905135614 87 108 6.0 10.0 0.00 0.00 0.00 45 1022.0
20260905135416 87 71 6.0 10.0 0.00 0.00 0.00 45 1022.1
20260905135240 87 127 4.0 10.0 0.00 0.00 0.00 44 1022.0
20260905135147 87 132 3.0 9.0 0.00 0.00 0.00 45 1022.1
20260905135040 87 132 4.0 9.0 0.00 0.00 0.00 45 1022.2
20260905134858 87 132 6.0 9.0 0.00 0.00 0.00 44 1022.1
20260905134704 87 119 3.0 11.0 0.00 0.00 0.00 45 1022.3
20260905134517 87 105 2.0 11.0 0.00 0.00 0.00 44 1022.3
20260905134335 87 144 6.0 11.0 0.00 0.00 0.00 45 1022.3
20260905134242 87 126 6.0 11.0 0.00 0.00 0.00 44 1022.3
20260905134128 87 130 4.0 11.0 0.00 0.00 0.00 45 1022.3
20260905133943 87 132 8.0 11.0 0.00 0.00 0.00 44 1022.3
20260905133813 87 57 4.0 11.0 0.00 0.00 0.00 45 1022.3
20260905133800 87 81 4.0 11.0 0.00 0.00 0.00 45 1022.3
20260905133604 87 50 2.0 11.0 0.00 0.00 0.00 46 1022.3
20260905133426 87 148 3.0 12.0 0.00 0.00 0.00 46 1022.3
20260905133342 87 133 3.0 12.0 0.00 0.00 0.00 46 1022.3
20260905133226 87 90 6.0 12.0 0.00 0.00 0.00 46 1022.3
20260905133041 86 107 3.0 12.0 0.00 0.00 0.00 46 1022.3
20260905132905 86 108 2.0 12.0 0.00 0.00 0.00 46 1022.3
20260905132847 86 116 2.0 12.0 0.00 0.00 0.00 46 1022.3
20260905132644 86 121 7.0 12.0 0.00 0.00 0.00 46 1022.4
20260905132507 86 110 6.0 11.0 0.00 0.00 0.00 46 1022.4
20260905132427 86 135 6.0 11.0 0.00 0.00 0.00 47 1022.4
20260905132301 86 101 5.0 11.0 0.00 0.00 0.00 47 1022.3
20260905131735 85 116 7.0 11.0 0.00 0.00 0.00 47 1022.4
20260905131719 85 107 7.0 11.0 0.00 0.00 0.00 47 1022.4
20260905131122 85 142 2.0 8.0 0.00 0.00 0.00 48 1022.4
20260905131044 85 62 1.0 7.0 0.00 0.00 0.00 48 1022.4
20260905130920 85 71 4.0 7.0 0.00 0.00 0.00 48 1022.4
20260905130741 85 130 5.0 10.0 0.00 0.00 0.00 48 1022.4
20260905130619 85 131 4.0 11.0 0.00 0.00 0.00 49 1022.5
20260905130557 85 121 3.0 11.0 0.00 0.00 0.00 49 1022.6
20260905130358 84 101 3.0 11.0 0.00 0.00 0.00 49 1022.5
20260905130214 84 55 5.0 11.0 0.00 0.00 0.00 48 1022.6
20260905130145 84 47 5.0 11.0 0.00 0.00 0.00 48 1022.6
20260905130015 84 68 8.0 11.0 0.00 0.00 0.00 49 1022.6
20260905125503 84 53 8.0 11.0 0.00 0.00 0.00 49 1022.7
20260905125423 84 57 8.0 11.0 0.00 0.00 0.00 49 1022.6
20260905125243 84 48 6.0 11.0 0.00 0.00 0.00 49 1022.5
20260905125115 84 85 7.0 11.0 0.00 0.00 0.00 49 1022.6
20260905125040 84 57 7.0 11.0 0.00 0.00 0.00 49 1022.6
20260905124531 84 81 7.0 11.0 0.00 0.00 0.00 48 1022.6
20260905124414 84 82 6.0 11.0 0.00 0.00 0.00 49 1022.7
20260905124334 84 117 5.0 10.0 0.00 0.00 0.00 49 1022.7
20260905123811 83 84 6.0 10.0 0.00 0.00 0.00 49 1022.7
20260905123736 83 99 6.0 10.0 0.00 0.00 0.00 49 1022.7
20260905123608 83 104 7.0 10.0 0.00 0.00 0.00 49 1022.7
20260905123056 83 55 6.0 10.0 0.00 0.00 0.00 49 1022.8
20260905123018 83 77 4.0 10.0 0.00 0.00 0.00 49 1022.7
20260905122840 83 97 5.0 10.0 0.00 0.00 0.00 49 1022.8
20260905122655 83 96 8.0 11.0 0.00 0.00 0.00 48 1022.9
20260905122626 83 49 8.0 11.0 0.00 0.00 0.00 49 1022.8
20260905122503 83 76 5.0 11.0 0.00 0.00 0.00 49 1022.9
20260905122332 83 53 4.0 11.0 0.00 0.00 0.00 49 1022.9
20260905122207 83 84 4.0 11.0 0.00 0.00 0.00 50 1022.9
20260905122140 83 111 5.0 11.0 0.00 0.00 0.00 49 1022.9
20260905121949 83 96 8.0 11.0 0.00 0.00 0.00 49 1022.9
20260905121816 83 67 4.0 10.0 0.00 0.00 0.00 52 1022.9
20260905121734 83 77 4.0 12.0 0.00 0.00 0.00 52 1022.9
20260905121213 82 90 4.0 12.0 0.00 0.00 0.00 52 1022.8
20260905121101 82 121 4.0 12.0 0.00 0.00 0.00 51 1022.9
20260905121019 82 80 5.0 12.0 0.00 0.00 0.00 51 1022.8
20260905120839 82 117 7.0 12.0 0.00 0.00 0.00 51 1022.9
20260905120704 82 75 7.0 12.0 0.00 0.00 0.00 52 1022.9
20260905120622 82 85 7.0 12.0 0.00 0.00 0.00 53 1022.9
20260905120459 82 38 5.0 12.0 0.00 0.00 0.00 53 1022.9
20260905120002 82 80 4.0 9.0 0.00 0.00 0.00 54 1023.0
20260905115917 82 67 4.0 9.0 0.00 0.00 0.00 54 1022.9
20260905115738 82 13 4.0 10.0 0.00 0.00 0.00 54 1023.1
20260905115554 82 63 3.0 10.0 0.00 0.00 0.00 56 1023.1
20260905115523 82 81 3.0 10.0 0.00 0.00 0.00 56 1023.1
20260905115356 82 63 2.0 11.0 0.00 0.00 0.00 55 1023.1
20260905115229 81 91 5.0 11.0 0.00 0.00 0.00 56 1023.1
20260905115112 81 47 5.0 11.0 0.00 0.00 0.00 56 1023.1
20260905115028 81 71 4.0 11.0 0.00 0.00 0.00 56 1023.2
20260905114843 81 71 2.0 11.0 0.00 0.00 0.00 58 1023.1
20260905114044 80 83 2.0 9.0 0.00 0.00 0.00 58 1023.2
20260905113550 80 53 4.0 9.0 0.00 0.00 0.00 58 1023.3
20260905113528 80 70 4.0 9.0 0.00 0.00 0.00 58 1023.2
20260905113226 80 115 6.0 9.0 0.00 0.00 0.00 58 1023.1
20260905113045 80 84 3.0 9.0 0.00 0.00 0.00 59 1023.1
20260905113016 80 16 3.0 9.0 0.00 0.00 0.00 59 1023.2
20260905112846 80 30 4.0 9.0 0.00 0.00 0.00 59 1023.3
20260905112717 80 13 2.0 9.0 0.00 0.00 0.00 60 1023.2
20260905112558 79 342 3.0 10.0 0.00 0.00 0.00 60 1023.3
20260905112528 79 12 4.0 10.0 0.00 0.00 0.00 60 1023.3
20260905111946 79 46 2.0 10.0 0.00 0.00 0.00 61 1023.4
20260905111915 79 49 2.0 10.0 0.00 0.00 0.00 62 1023.5
20260905111744 79 75 4.0 10.0 0.00 0.00 0.00 62 1023.4
20260905111146 78 78 0.0 0.0 0.00 0.00 0.00 63 1023.5
20260905111019 78 78 0.0 0.0 0.00 0.00 0.00 64 1023.6
20260905110839 78 78 0.0 0.0 0.00 0.00 0.00 64 1023.5
20260905110818 78 78 0.0 0.0 0.00 0.00 0.00 63 1023.5
20260905110727 78 78 0.0 0.0 0.00 0.00 0.00 64 1023.7
20260905110601 78 78 0.0 0.0 0.00 0.00 0.00 65 1023.7
20260905110458 78 78 0.0 0.0 0.00 0.00 0.00 65 1023.9
20260905110418 78 78 0.0 0.0 0.00 0.00 0.00 66 1023.9
20260905110321 78 78 0.0 0.0 0.00 0.00 0.00 66 1023.9
20260905105558 78 78 0.0 0.0 0.00 0.00 0.00 66 1023.9
20260905105409 78 78 0.0 0.0 0.00 0.00 0.00 66 1023.9
20260905105317 78 78 0.0 0.0 0.00 0.00 0.00 66 1023.9
20260905105306 78 78 0.0 0.0 0.00 0.00 0.00 68 1024.0
20260905105140 77 78 0.0 0.0 0.00 0.00 0.00 68 1024.0
20260905104942 77 78 0.0 0.0 0.00 0.00 0.00 68 1024.2
20260905104917 77 78 0.0 0.0 0.00 0.00 0.00 68 1024.1
20260905104812 77 78 0.0 0.0 0.00 0.00 0.00 67 1024.2
20260905104554 77 78 0.0 0.0 0.00 0.00 0.00 69 1024.1
20260905104450 77 78 0.0 0.0 0.00 0.00 0.00 68 1024.1
20260905104412 76 78 0.0 0.0 0.00 0.00 0.00 68 1024.2
20260905104324 76 78 0.0 0.0 0.00 0.00 0.00 68 1024.1
20260905104229 76 78 0.0 0.0 0.00 0.00 0.00 69 1024.2
20260905104205 76 78 0.0 0.0 0.00 0.00 0.00 69 1024.3
20260905103222 76 78 0.0 0.0 0.00 0.00 0.00 71 1024.2
20260905103054 76 78 0.0 0.0 0.00 0.00 0.00 72 1024.4
20260905102853 76 78 0.0 0.0 0.00 0.00 0.00 71 1024.2
20260905102838 76 78 0.0 0.0 0.00 0.00 0.00 71 1024.4
20260905102744 76 78 0.0 0.0 0.00 0.00 0.00 73 1024.4
20260905102600 76 78 0.0 0.0 0.00 0.00 0.00 73 1024.4
20260905102445 76 78 0.0 0.0 0.00 0.00 0.00 74 1024.4
20260905102321 75 78 0.0 0.0 0.00 0.00 0.00 75 1024.5
20260905102213 75 78 0.0 0.0 0.00 0.00 0.00 75 1024.6
20260905102149 75 78 0.0 0.0 0.00 0.00 0.00 75 1024.5
20260905102053 75 78 0.0 0.0 0.00 0.00 0.00 76 1024.5
20260905101956 74 78 0.0 0.0 0.00 0.00 0.00 76 1024.5
20260905101301 74 78 0.0 0.0 0.00 0.00 0.00 76 1024.7
20260905101104 74 78 0.0 0.0 0.00 0.00 0.00 76 1024.6
20260905101045 74 78 0.0 0.0 0.00 0.00 0.00 76 1024.7
20260905100946 74 78 0.0 0.0 0.00 0.00 0.00 77 1024.6
20260905100515 73 78 0.0 0.0 0.00 0.00 0.00 81 1024.6
20260905100145 73 78 0.0 0.0 0.00 0.00 0.00 81 1024.6
20260905100016 73 78 0.0 0.0 0.00 0.00 0.00 81 1024.7
20260905095943 73 78 0.0 0.0 0.00 0.00 0.00 81 1024.7
20260905095841 72 78 0.0 0.0 0.00 0.00 0.00 83 1024.7
20260905095714 72 78 0.0 0.0 0.00 0.00 0.00 82 1024.7
20260905095611 72 78 0.0 0.0 0.00 0.00 0.00 82 1024.6
20260905095234 72 78 0.0 0.0 0.00 0.00 0.00 83 1024.7
20260905095049 71 78 0.0 0.0 0.00 0.00 0.00 85 1024.6
20260905094724 71 78 0.0 0.0 0.00 0.00 0.00 85 1024.6
20260905094548 71 78 0.0 0.0 0.00 0.00 0.00 86 1024.6
20260905094419 71 78 0.0 0.0 0.00 0.00 0.00 86 1024.5
20260905094258 70 78 0.0 6.0 0.00 0.00 0.00 87 1024.6
20260905093908 70 78 0.0 6.0 0.00 0.00 0.00 88 1024.7
20260905093043 69 78 2.0 6.0 0.00 0.00 0.00 90 1024.7
20260905093021 69 78 1.0 6.0 0.00 0.00 0.00 90 1024.7
20260905092854 69 73 0.0 3.0 0.00 0.00 0.00 93 1024.9
20260905092602 69 73 0.0 3.0 0.00 0.00 0.00 94 1024.7
20260905092521 69 73 0.0 3.0 0.00 0.00 0.00 94 1024.7
20260905092450 65 231 0.0 0.0 0.00 0.00 0.00 98 1023.4
20260905092413 68 73 0.0 3.0 0.00 0.00 0.00 95 1024.7
20260905092211 68 73 0.0 3.0 0.00 0.00 0.00 95 1024.7
20260905092148 65 231 0.0 0.0 0.00 0.00 0.00 97 1023.2
20260905092022 68 55 0.0 0.0 0.00 0.00 0.00 96 1024.7
20260905091938 66 231 0.0 0.0 0.00 0.00 0.00 97 1023.3
20260905091856 67 55 0.0 0.0 0.00 0.00 0.00 96 1024.9
20260905091650 66 231 0.0 0.0 0.00 0.00 0.00 97 1023.2
20260905091622 66 231 0.0 0.0 0.00 0.00 0.00 97 1023.3
20260905091609 67 55 0.0 0.0 0.00 0.00 0.00 97 1024.7
20260905091520 67 55 0.0 0.0 0.00 0.00 0.00 97 1024.6
20260905091500 66 231 0.0 0.0 0.00 0.00 0.00 97 1023.2
20260905091439 66 231 0.0 0.0 0.00 0.00 0.00 97 1023.3
20260905091410 67 55 0.0 0.0 0.00 0.00 0.00 97 1024.6
20260905091206 67 55 0.0 0.0 0.00 0.00 0.00 98 1024.7
20260905091029 67 55 0.0 0.0 0.00 0.00 0.00 98 1024.7
20260905090926 67 55 0.0 0.0 0.00 0.00 0.00 98 1024.7
20260905090800 67 55 0.0 0.0 0.00 0.00 0.00 98 1024.7
20260905090423 66 55 0.0 0.0 0.00 0.00 0.00 98 1024.7
20260905090214 66 55 0.0 0.0 0.00 0.00 0.00 99 1024.7
20260905090049 66 55 0.0 0.0 0.00 0.00 0.00 99 1024.7
20260905090027 66 55 0.0 0.0 0.00 0.00 0.00 98 1024.7
20260905085931 66 55 0.0 4.0 0.00 0.00 0.00 98 1024.6
20260905085740 66 55 0.0 4.0 0.00 0.00 0.00 98 1024.9
20260905085705 66 55 0.0 4.0 0.00 0.00 0.00 98 1024.7
20260905085623 66 55 0.0 4.0 0.00 0.00 0.00 98 1024.7
20260905085505 66 55 0.0 4.0 0.00 0.00 0.00 98 1024.7
20260905085417 66 55 2.0 4.0 0.00 0.00 0.00 98 1024.9
20260905085352 66 55 2.0 4.0 0.00 0.00 0.00 98 1024.7
20260905085226 66 53 0.0 4.0 0.00 0.00 0.00 99 1024.6
20260905085036 65 61 0.0 0.0 0.00 0.00 0.00 98 1024.7
20260905084954 65 61 0.0 0.0 0.00 0.00 0.00 98 1024.7
20260905084523 65 61 0.0 0.0 0.00 0.00 0.00 98 1024.9
20260905084424 65 61 0.0 0.0 0.00 0.00 0.00 99 1024.9
20260905083711 65 61 0.0 4.0 0.00 0.00 0.00 99 1025.0
20260905083638 65 61 0.0 4.0 0.00 0.00 0.00 99 1024.9
20260905083513 65 61 0.0 4.0 0.00 0.00 0.00 99 1024.7
20260905083433 65 61 2.0 4.0 0.00 0.00 0.00 99 1024.7
20260905083358 65 61 2.0 4.0 0.00 0.00 0.00 99 1024.7
20260905083231 65 62 1.0 4.0 0.00 0.00 0.00 99 1024.7
20260905083005 65 73 0.0 3.0 0.00 0.00 0.00 99 1024.6
20260905082933 65 73 0.0 3.0 0.00 0.00 0.00 99 1024.6
20260905082837 65 65 0.0 4.0 0.00 0.00 0.00 99 1024.7
20260905082735 65 65 0.0 4.0 0.00 0.00 0.00 99 1024.6
20260905082704 65 65 0.0 5.0 0.00 0.00 0.00 99 1024.6
20260905082635 65 82 0.0 5.0 0.00 0.00 0.00 99 1024.6
20260905082229 65 82 2.0 5.0 0.00 0.00 0.00 99 1024.6
20260905081829 65 87 2.0 5.0 0.00 0.00 0.00 99 1024.5
20260905081555 65 78 3.0 5.0 0.00 0.00 0.00 99 1024.5
20260905081436 65 76 1.0 5.0 0.00 0.00 0.00 99 1024.5
20260905081401 65 57 1.0 5.0 0.00 0.00 0.00 99 1024.5
20260905081244 65 113 0.0 1.0 0.00 0.00 0.00 99 1024.5
20260905081205 65 113 0.0 3.0 0.00 0.00 0.00 99 1024.5
20260905081138 65 113 0.0 4.0 0.00 0.00 0.00 99 1024.5
20260905081029 65 136 0.0 4.0 0.00 0.00 0.00 99 1024.5
20260905080930 65 136 0.0 4.0 0.00 0.00 0.00 99 1024.5
20260905080605 65 136 0.0 4.0 0.00 0.00 0.00 99 1024.5
20260905080133 65 96 2.0 4.0 0.00 0.00 0.00 99 1024.5
20260905080049 65 146 2.0 6.0 0.00 0.00 0.00 99 1024.5
20260905075931 65 80 1.0 6.0 0.00 0.00 0.00 99 1024.4
20260905075806 65 70 1.0 6.0 0.00 0.00 0.00 99 1024.5
20260905075645 65 101 2.0 6.0 0.00 0.00 0.00 99 1024.5
20260905075247 65 76 3.0 6.0 0.00 0.00 0.00 99 1024.5
20260905075137 65 94 1.0 6.0 0.00 0.00 0.00 99 1024.5
20260905075056 65 88 0.0 4.0 0.00 0.00 0.00 99 1024.5
20260905075006 65 53 0.0 2.0 0.00 0.00 0.00 99 1024.5
20260905074629 65 53 0.0 3.0 0.00 0.00 0.00 99 1024.5
20260905073936 65 53 0.0 4.0 0.00 0.00 0.00 99 1024.6
20260905073859 65 58 0.0 4.0 0.00 0.00 0.00 99 1024.6
20260905073809 65 61 0.0 4.0 0.00 0.00 0.00 99 1024.6
20260905073628 65 84 1.0 4.0 0.00 0.00 0.00 99 1024.5
20260905073511 65 111 1.0 4.0 0.00 0.00 0.00 99 1024.5
20260905073449 65 130 1.0 4.0 0.00 0.00 0.00 99 1024.5
20260905073325 65 84 2.0 4.0 0.00 0.00 0.00 99 1024.4
20260905072847 65 118 1.0 4.0 0.00 0.00 0.00 99 1024.4
20260905072330 65 144 1.0 2.0 0.00 0.00 0.00 99 1024.4
20260905071940 65 100 0.0 3.0 0.00 0.00 0.00 99 1024.4
20260905071808 65 100 0.0 3.0 0.00 0.00 0.00 99 1024.5
20260905071555 65 100 0.0 3.0 0.00 0.00 0.00 99 1024.6
20260905071507 65 100 1.0 3.0 0.00 0.00 0.00 99 1024.5
20260905071440 65 110 1.0 3.0 0.00 0.00 0.00 99 1024.4
20260905071232 65 108 1.0 3.0 0.00 0.00 0.00 99 1024.4
20260905071052 65 121 0.0 4.0 0.00 0.00 0.00 99 1024.4
20260905071001 65 157 0.0 4.0 0.00 0.00 0.00 99 1024.4
20260905070848 64 157 0.0 4.0 0.00 0.00 0.00 99 1024.4
20260905070807 65 157 0.0 4.0 0.00 0.00 0.00 99 1024.4
20260905070740 65 157 0.0 4.0 0.00 0.00 0.00 99 1024.3
20260905070610 65 157 1.0 4.0 0.00 0.00 0.00 99 1024.3
20260905070224 65 124 0.0 1.0 0.00 0.00 0.00 99 1024.2
20260905065802 65 53 0.0 0.0 0.00 0.00 0.00 99 1024.1
20260905065723 64 53 0.0 0.0 0.00 0.00 0.00 99 1024.1
20260905065701 64 53 0.0 0.0 0.00 0.00 0.00 99 1024.1
20260905065553 64 53 0.0 0.0 0.00 0.00 0.00 99 1024.2
20260905064921 64 53 0.0 0.0 0.00 0.00 0.00 99 1024.1
20260905064433 64 53 0.0 0.0 0.00 0.00 0.00 99 1024.0
20260905064323 64 53 0.0 0.0 0.00 0.00 0.00 99 1024.0
20260905064129 64 53 0.0 0.0 0.00 0.00 0.00 99 1024.1
20260905064014 64 53 0.0 0.0 0.00 0.00 0.00 99 1024.1
20260905063932 64 53 0.0 0.0 0.00 0.00 0.00 99 1024.0
20260905063818 64 53 0.0 0.0 0.00 0.00 0.00 99 1024.0
20260905063752 64 53 0.0 0.0 0.00 0.00 0.00 99 1024.0
20260905063709 64 53 0.0 0.0 0.00 0.00 0.00 99 1024.0
20260905063527 64 53 0.0 0.0 0.00 0.00 0.00 99 1024.1
20260905063438 64 53 0.0 3.0 0.00 0.00 0.00 99 1024.0
20260905063422 64 53 0.0 3.0 0.00 0.00 0.00 99 1024.1
20260905062725 64 53 0.0 3.0 0.00 0.00 0.00 99 1024.1
20260905062631 65 53 0.0 3.0 0.00 0.00 0.00 98 1024.1
20260905062149 65 56 0.0 2.0 0.00 0.00 0.00 99 1024.2
20260905062115 65 56 0.0 2.0 0.00 0.00 0.00 98 1024.2
20260905062011 65 59 0.0 2.0 0.00 0.00 0.00 99 1024.2
20260905061750 65 72 0.0 2.0 0.00 0.00 0.00 99 1024.1
20260905061640 65 351 0.0 2.0 0.00 0.00 0.00 99 1024.1
20260905061451 65 351 0.0 4.0 0.00 0.00 0.00 98 1024.1
20260905061403 65 351 0.0 4.0 0.00 0.00 0.00 99 1024.1
20260905061335 65 351 0.0 4.0 0.00 0.00 0.00 98 1024.1
20260905061229 65 351 0.0 4.0 0.00 0.00 0.00 98 1024.0
20260905061056 65 351 0.0 4.0 0.00 0.00 0.00 98 1024.1
20260905060940 65 351 1.0 4.0 0.00 0.00 0.00 98 1024.1
20260905060815 65 5 0.0 2.0 0.00 0.00 0.00 99 1024.0
20260905060715 65 5 0.0 2.0 0.00 0.00 0.00 99 1024.0
20260905060359 65 5 0.0 3.0 0.00 0.00 0.00 99 1024.0
20260905055306 65 0 0.0 3.0 0.00 0.00 0.00 99 1023.9
20260905055207 65 0 1.0 3.0 0.00 0.00 0.00 99 1024.0
20260905055124 65 0 1.0 3.0 0.00 0.00 0.00 99 1024.0
20260905054959 65 49 0.0 3.0 0.00 0.00 0.00 99 1023.9
20260905054739 65 49 0.0 3.0 0.00 0.00 0.00 99 1023.8
20260905054418 65 60 1.0 3.0 0.00 0.00 0.00 99 1023.8
20260905054145 65 0 1.0 3.0 0.00 0.00 0.00 99 1023.9
20260905054041 65 352 0.0 3.0 0.00 0.00 0.00 99 1023.8
20260905053954 65 231 0.0 0.0 0.00 0.00 0.00 99 1023.8
20260905053857 65 231 0.0 0.0 0.00 0.00 0.00 99 1023.8
20260905053449 65 231 0.0 0.0 0.00 0.00 0.00 99 1023.9
20260905053355 65 231 0.0 0.0 0.00 0.00 0.00 99 1023.9
20260905052944 65 231 0.0 0.0 0.00 0.00 0.00 99 1023.8
20260905052913 65 231 0.0 0.0 0.00 0.00 0.00 99 1023.8
20260905052808 65 231 0.0 0.0 0.00 0.00 0.00 99 1023.8
20260905052634 65 231 0.0 0.0 0.00 0.00 0.00 99 1023.7
20260905052316 65 231 0.0 0.0 0.00 0.00 0.00 99 1023.6
20260905052100 65 231 0.0 0.0 0.00 0.00 0.00 99 1023.6
20260905052045 65 231 0.0 0.0 0.00 0.00 0.00 99 1023.6
20260905051727 66 231 0.0 0.0 0.00 0.00 0.00 97 1023.3
20260905051642 65 231 0.0 0.0 0.00 0.00 0.00 98 1023.6
20260905051516 67 231 0.0 0.0 0.00 0.00 0.00 97 1023.3
20260905051434 65 231 0.0 0.0 0.00 0.00 0.00 99 1023.5
20260905051409 65 231 0.0 0.0 0.00 0.00 0.00 99 1023.6
20260905051234 65 231 0.0 0.0 0.00 0.00 0.00 99 1023.5
20260905051014 65 231 0.0 0.0 0.00 0.00 0.00 99 1023.6
20260905050932 65 231 0.0 0.0 0.00 0.00 0.00 99 1023.6
20260905050831 65 231 0.0 0.0 0.00 0.00 0.00 98 1023.5
20260905050742 65 231 0.0 0.0 0.00 0.00 0.00 99 1023.6
20260905050503 64 231 0.0 0.0 0.00 0.00 0.00 99 1023.5
20260905050416 64 231 0.0 0.0 0.00 0.00 0.00 99 1023.5
20260905050256 64 231 0.0 0.0 0.00 0.00 0.00 99 1023.4
20260905045947 64 231 0.0 0.0 0.00 0.00 0.00 99 1023.4
20260905045440 64 231 0.0 0.0 0.00 0.00 0.00 98 1023.5
20260905045403 64 231 0.0 0.0 0.00 0.00 0.00 98 1023.4
20260905045214 64 231 0.0 0.0 0.00 0.00 0.00 98 1023.4
20260905044914 64 231 0.0 0.0 0.00 0.00 0.00 98 1023.4
20260905044829 64 231 0.0 0.0 0.00 0.00 0.00 98 1023.4
20260905044414 67 231 0.0 0.0 0.00 0.00 0.00 97 1023.3
20260905044403 64 231 0.0 0.0 0.00 0.00 0.00 98 1023.4
20260905044338 67 231 0.0 0.0 0.00 0.00 0.00 97 1023.2
20260905044214 64 231 0.0 0.0 0.00 0.00 0.00 98 1023.3
20260905044058 64 231 0.0 0.0 0.00 0.00 0.00 98 1023.2
20260905044027 64 231 0.0 0.0 0.00 0.00 0.00 98 1023.3
20260905043952 64 231 0.0 0.0 0.00 0.00 0.00 98 1023.2
20260905043901 64 231 0.0 0.0 0.00 0.00 0.00 98 1023.2
20260905043710 64 231 0.0 0.0 0.00 0.00 0.00 98 1023.2
20260905043353 64 231 0.0 0.0 0.00 0.00 0.00 98 1023.2
20260905042936 64 231 0.0 0.0 0.00 0.00 0.00 98 1023.3
20260905042912 67 231 0.0 0.0 0.00 0.00 0.00 97 1023.4
20260905042812 64 231 0.0 0.0 0.00 0.00 0.00 98 1023.2
20260905042800 67 231 0.0 0.0 0.00 0.00 0.00 97 1023.3
20260905042630 64 231 0.0 0.0 0.00 0.00 0.00 98 1023.2
20260905042439 64 231 0.0 0.0 0.00 0.00 0.00 98 1023.2
20260905042344 64 231 0.0 0.0 0.00 0.00 0.00 98 1023.3
20260905042158 64 231 0.0 0.0 0.00 0.00 0.00 98 1023.3
20260905042122 63 231 0.0 0.0 0.00 0.00 0.00 98 1023.3
20260905042031 63 231 0.0 0.0 0.00 0.00 0.00 98 1023.3
20260905041938 63 231 0.0 0.0 0.00 0.00 0.00 98 1023.2
20260905041745 63 231 0.0 0.0 0.00 0.00 0.00 98 1023.2
20260905041126 63 231 0.0 0.0 0.00 0.00 0.00 98 1023.3
20260905040938 63 231 0.0 0.0 0.00 0.00 0.00 98 1023.3
20260905040901 67 231 0.0 0.0 0.00 0.00 0.00 97 1023.3
20260905040816 63 231 0.0 0.0 0.00 0.00 0.00 98 1023.3
20260905040759 67 231 0.0 0.0 0.00 0.00 0.00 97 1023.5
20260905040748 67 231 0.0 0.0 0.00 0.00 0.00 97 1023.4
20260905040637 63 231 0.0 0.0 0.00 0.00 0.00 97 1023.3
20260905040440 63 231 0.0 0.0 0.00 0.00 0.00 97 1023.4
20260905040407 63 231 0.0 0.0 0.00 0.00 0.00 97 1023.5
20260905040206 63 231 0.0 0.0 0.00 0.00 0.00 97 1023.4
20260905040058 63 231 0.0 0.0 0.00 0.00 0.00 97 1023.5
20260905035933 63 231 0.0 0.0 0.00 0.00 0.00 97 1023.4
20260905035819 63 231 0.0 0.0 0.00 0.00 0.00 97 1023.5
20260905035712 63 231 0.0 0.0 0.00 0.00 0.00 97 1023.5
20260905035522 63 231 0.0 0.0 0.00 0.00 0.00 97 1023.4
20260905035104 64 231 0.0 0.0 0.00 0.00 0.00 97 1023.5
20260905034932 64 231 0.0 0.0 0.00 0.00 0.00 97 1023.4
20260905034907 68 231 0.0 0.0 0.00 0.00 0.00 97 1023.4
20260905034841 68 231 0.0 0.0 0.00 0.00 0.00 96 1023.4
20260905034810 64 231 0.0 0.0 0.00 0.00 0.00 98 1023.4
20260905034645 64 231 0.0 0.0 0.00 0.00 0.00 97 1023.4
20260905034437 64 231 0.0 0.0 0.00 0.00 0.00 98 1023.5
20260905034425 68 231 0.0 0.0 0.00 0.00 0.00 96 1023.5
20260905034409 64 231 0.0 0.0 0.00 0.00 0.00 98 1023.4
20260905034351 69 231 0.0 0.0 0.00 0.00 0.00 96 1023.3
20260905034318 69 231 0.0 0.0 0.00 0.00 0.00 96 1023.3
20260905034220 64 231 0.0 0.0 0.00 0.00 0.00 98 1023.4
20260905034113 64 231 0.0 0.0 0.00 0.00 0.00 98 1023.3
20260905034010 64 231 0.0 0.0 0.00 0.00 0.00 98 1023.3
20260905033925 64 231 0.0 0.0 0.00 0.00 0.00 97 1023.4
20260905033413 64 231 0.0 0.0 0.00 0.00 0.00 98 1023.4
20260905033358 69 231 0.0 0.0 0.00 0.00 0.00 96 1023.2
20260905033245 64 231 0.0 0.0 0.00 0.00 0.00 98 1023.3
20260905033157 64 231 0.0 0.0 0.00 0.00 0.00 98 1023.4
20260905033017 64 231 0.0 0.0 0.00 0.00 0.00 98 1023.3
20260905032954 64 231 0.0 0.0 0.00 0.00 0.00 98 1023.3
20260905032845 64 231 0.0 0.0 0.00 0.00 0.00 98 1023.4
20260905032420 64 231 0.0 0.0 0.00 0.00 0.00 98 1023.5
20260905032313 64 231 0.0 0.0 0.00 0.00 0.00 97 1023.4
20260905032226 64 231 0.0 0.0 0.00 0.00 0.00 97 1023.5
20260905032047 64 231 0.0 0.0 0.00 0.00 0.00 97 1023.5
20260905031719 69 231 0.0 0.0 0.00 0.00 0.00 96 1023.3
20260905031629 64 231 0.0 0.0 0.00 0.00 0.00 97 1023.5
20260905031414 64 231 0.0 0.0 0.00 0.00 0.00 97 1023.3
20260905031402 64 231 0.0 0.0 0.00 0.00 0.00 97 1023.3
20260905031340 69 231 0.0 0.0 0.00 0.00 0.00 96 1023.3
20260905031218 64 231 0.0 0.0 0.00 0.00 0.00 97 1023.4
20260905031100 65 231 0.0 0.0 0.00 0.00 0.00 98 1023.4
20260905030858 65 231 0.0 0.0 0.00 0.00 0.00 97 1023.4
20260905030813 65 231 0.0 0.0 0.00 0.00 0.00 97 1023.4
20260905030702 65 231 0.0 0.0 0.00 0.00 0.00 98 1023.3
20260905030509 65 231 0.0 0.0 0.00 0.00 0.00 98 1023.4
20260905030458 65 231 0.0 0.0 0.00 0.00 0.00 98 1023.4
20260905030416 65 231 0.0 0.0 0.00 0.00 0.00 98 1023.4
20260905030302 65 231 0.0 0.0 0.00 0.00 0.00 98 1023.4
20260905030137 65 231 0.0 0.0 0.00 0.00 0.00 98 1023.3
20260905025822 65 231 0.0 0.0 0.00 0.00 0.00 97 1023.3
20260905025610 65 231 0.0 0.0 0.00 0.00 0.00 97 1023.3
20260905025209 65 231 0.0 0.0 0.00 0.00 0.00 97 1023.4
20260905025036 65 231 0.0 0.0 0.00 0.00 0.00 97 1023.4
20260905024840 65 231 0.0 0.0 0.00 0.00 0.00 98 1023.3
20260905024811 65 231 0.0 0.0 0.00 0.00 0.00 98 1023.4
20260905024622 65 231 0.0 0.0 0.00 0.00 0.00 98 1023.4
20260905024407 65 231 0.0 0.0 0.00 0.00 0.00 98 1023.4
20260905024334 65 231 0.0 0.0 0.00 0.00 0.00 98 1023.4
20260905024216 65 231 0.0 0.0 0.00 0.00 0.00 98 1023.5
20260905024030 65 231 0.0 0.0 0.00 0.00 0.00 97 1023.5
20260905023816 65 231 0.0 0.0 0.00 0.00 0.00 97 1023.5
20260905023758 69 231 0.0 0.0 0.00 0.00 0.00 96 1023.2
20260905023615 65 231 0.0 0.0 0.00 0.00 0.00 97 1023.4
20260905023413 65 231 0.0 0.0 0.00 0.00 0.00 97 1023.5
20260905023344 65 231 0.0 0.0 0.00 0.00 0.00 97 1023.4
20260905023222 65 231 0.0 0.0 0.00 0.00 0.00 97 1023.5
20260905023131 65 231 0.0 0.0 0.00 0.00 0.00 97 1023.4
20260905022941 65 231 0.0 0.0 0.00 0.00 0.00 97 1023.5
20260905022612 65 231 0.0 0.0 0.00 0.00 0.00 97 1023.4
20260905022411 65 231 0.0 0.0 0.00 0.00 0.00 97 1023.5
20260905022339 65 231 0.0 0.0 0.00 0.00 0.00 97 1023.4
20260905022213 65 231 0.0 0.0 0.00 0.00 0.00 97 1023.4
20260905022056 65 231 0.0 0.0 0.00 0.00 0.00 97 1023.5
20260905021915 65 231 0.0 0.0 0.00 0.00 0.00 97 1023.5
20260905021858 65 231 0.0 0.0 0.00 0.00 0.00 97 1023.4
20260905021751 65 231 0.0 0.0 0.00 0.00 0.00 98 1023.4
20260905021554 65 231 0.0 0.0 0.00 0.00 0.00 97 1023.3
20260905021535 65 231 0.0 0.0 0.00 0.00 0.00 97 1023.4
20260905021223 66 231 0.0 0.0 0.00 0.00 0.00 97 1023.3
20260905021113 66 231 0.0 0.0 0.00 0.00 0.00 97 1023.3
20260905020935 66 231 0.0 0.0 0.00 0.00 0.00 97 1023.3
20260905020917 65 231 0.0 0.0 0.00 0.00 0.00 97 1023.3
20260905020418 66 231 0.0 0.0 0.00 0.00 0.00 97 1023.2
20260905020401 66 231 0.0 0.0 0.00 0.00 0.00 97 1023.1
20260905020315 66 231 0.0 0.0 0.00 0.00 0.00 97 1023.2
20260905020214 66 231 0.0 0.0 0.00 0.00 0.00 97 1023.3
20260905020034 66 231 0.0 0.0 0.00 0.00 0.00 97 1023.3
20260905015633 66 231 0.0 0.0 0.00 0.00 0.00 97 1023.2
20260905015518 66 231 0.0 0.0 0.00 0.00 0.00 97 1023.2
20260905015347 66 231 0.0 0.0 0.00 0.00 0.00 97 1023.2
20260905015251 66 231 0.0 0.0 0.00 0.00 0.00 97 1023.2
20260905015151 66 231 0.0 0.0 0.00 0.00 0.00 97 1023.3
20260905015023 66 231 0.0 0.0 0.00 0.00 0.00 97 1023.2
20260905015008 66 231 0.0 0.0 0.00 0.00 0.00 97 1023.3
20260905014907 66 231 0.0 0.0 0.00 0.00 0.00 97 1023.2
20260905014802 66 231 0.0 0.0 0.00 0.00 0.00 97 1023.3
20260905014705 66 231 0.0 0.0 0.00 0.00 0.00 97 1023.2
20260905014633 66 231 0.0 0.0 0.00 0.00 0.00 97 1023.2
20260905014526 66 231 0.0 0.0 0.00 0.00 0.00 97 1023.3
20260905014453 66 231 0.0 0.0 0.00 0.00 0.00 97 1023.2
20260905013837 66 231 0.0 0.0 0.00 0.00 0.00 97 1023.3
20260905013128 69 231 0.0 0.0 0.00 0.00 0.00 95 1023.3
20260905013015 66 231 0.0 0.0 0.00 0.00 0.00 97 1023.2
20260905012839 66 231 0.0 0.0 0.00 0.00 0.00 97 1023.3
20260905012812 66 231 0.0 0.0 0.00 0.00 0.00 97 1023.2
20260905012711 69 231 0.0 1.0 0.00 0.00 0.00 95 1023.2
20260905012639 67 231 0.0 0.0 0.00 0.00 0.00 97 1023.2
20260905012525 67 231 0.0 0.0 0.00 0.00 0.00 97 1023.3
20260905012405 67 231 0.0 0.0 0.00 0.00 0.00 97 1023.3
20260905012327 67 231 0.0 0.0 0.00 0.00 0.00 97 1023.3
20260905012230 67 231 0.0 0.0 0.00 0.00 0.00 97 1023.2
20260905012040 67 231 0.0 0.0 0.00 0.00 0.00 97 1023.3
20260905011329 67 231 0.0 0.0 0.00 0.00 0.00 97 1023.3
20260905011252 70 250 0.0 2.0 0.00 0.00 0.00 95 1023.2
20260905011214 67 231 0.0 0.0 0.00 0.00 0.00 97 1023.3
20260905011110 67 231 0.0 0.0 0.00 0.00 0.00 97 1023.3
20260905010924 67 231 0.0 0.0 0.00 0.00 0.00 97 1023.3
20260905010908 67 231 0.0 0.0 0.00 0.00 0.00 97 1023.2
20260905010452 67 231 0.0 0.0 0.00 0.00 0.00 97 1023.3
20260905010334 67 231 0.0 0.0 0.00 0.00 0.00 97 1023.2
20260905010320 70 274 0.0 0.0 0.00 0.00 0.00 95 1023.2
20260905010211 67 231 0.0 0.0 0.00 0.00 0.00 97 1023.3
20260905010146 70 274 0.0 1.0 0.00 0.00 0.00 95 1023.1
20260905010116 70 274 0.0 1.0 0.00 0.00 0.00 95 1023.2
20260905010026 67 231 0.0 0.0 0.00 0.00 0.00 97 1023.3
20260905005844 67 231 0.0 0.0 0.00 0.00 0.00 97 1023.4
20260905005759 67 231 0.0 0.0 0.00 0.00 0.00 97 1023.4
20260905005708 67 231 0.0 0.0 0.00 0.00 0.00 97 1023.5
20260905005616 67 231 0.0 0.0 0.00 0.00 0.00 97 1023.4
20260905005539 67 231 0.0 0.0 0.00 0.00 0.00 97 1023.4
20260905005420 67 231 0.0 0.0 0.00 0.00 0.00 97 1023.3
20260905005128 67 231 0.0 0.0 0.00 0.00 0.00 97 1023.4
20260905005030 67 231 0.0 0.0 0.00 0.00 0.00 97 1023.3
20260905004313 67 231 0.0 0.0 0.00 0.00 0.00 97 1023.3
20260905004218 67 231 0.0 0.0 0.00 0.00 0.00 97 1023.4
20260905003829 67 231 0.0 0.0 0.00 0.00 0.00 97 1023.5
20260905003737 67 231 0.0 0.0 0.00 0.00 0.00 97 1023.5
20260905003636 67 231 0.0 0.0 0.00 0.00 0.00 97 1023.4
20260905003531 67 231 0.0 0.0 0.00 0.00 0.00 97 1023.4
20260905003503 67 231 0.0 0.0 0.00 0.00 0.00 97 1023.4
20260905003019 68 231 0.0 0.0 0.00 0.00 0.00 97 1023.4
20260905002603 68 231 0.0 0.0 0.00 0.00 0.00 97 1023.3
20260905002436 68 231 0.0 0.0 0.00 0.00 0.00 97 1023.3
20260905002306 68 231 0.0 0.0 0.00 0.00 0.00 97 1023.2
20260905002200 68 231 0.0 0.0 0.00 0.00 0.00 97 1023.3
20260905002001 68 231 0.0 0.0 0.00 0.00 0.00 96 1023.3
20260905001820 68 231 0.0 0.0 0.00 0.00 0.00 96 1023.4
20260905001802 68 231 0.0 0.0 0.00 0.00 0.00 97 1023.4
20260905001713 68 231 0.0 0.0 0.00 0.00 0.00 97 1023.4
20260905001615 68 231 0.0 0.0 0.00 0.00 0.00 96 1023.4
20260905001144 68 231 0.0 0.0 0.00 0.00 0.00 96 1023.4
20260905001125 70 238 0.0 1.0 0.00 0.00 0.00 94 1023.2
20260905000940 68 231 0.0 0.0 0.00 0.00 0.00 96 1023.4
20260905000803 68 231 0.0 0.0 0.00 0.00 0.00 96 1023.4
20260905000739 68 231 0.0 0.0 0.00 0.00 0.00 96 1023.4
20260905000542 68 231 0.0 0.0 0.00 0.00 0.00 96 1023.4
20260905000403 68 231 0.0 0.0 0.00 0.00 0.00 96 1023.4
20260905000318 68 231 0.0 0.0 0.00 0.00 0.00 96 1023.4
20260905000228 68 231 0.0 0.0 0.00 0.00 0.00 97 1023.4
20260905000117 68 231 0.0 0.0 0.00 0.00 0.00 96 1023.4
20260904235956 68 231 0.0 0.0 0.00 0.00 0.00 96 1023.5
20260904235545 68 231 0.0 0.0 0.00 0.00 0.00 96 1023.4
20260904235314 68 231 0.0 0.0 0.00 0.00 0.00 96 1023.4
20260904235259 70 233 0.0 7.0 0.00 0.00 0.00 93 1023.3
20260904235211 71 266 4.0 11.0 0.00 0.00 0.00 91 1023.3
20260904235114 68 231 0.0 0.0 0.00 0.00 0.00 96 1023.3
20260904234941 68 231 0.0 0.0 0.00 0.00 0.00 96 1023.3
20260904234813 68 231 0.0 0.0 0.00 0.00 0.00 96 1023.3
20260904234755 71 259 2.0 6.0 0.00 0.00 0.00 91 1023.3
20260904234721 69 231 0.0 0.0 0.00 0.00 0.00 96 1023.3
20260904234628 69 231 0.0 0.0 0.00 0.00 0.00 96 1023.3
20260904234418 69 231 0.0 0.0 0.00 0.00 0.00 96 1023.3
20260904233955 69 231 0.0 0.0 0.00 0.00 0.00 96 1023.2
20260904233923 69 231 0.0 0.0 0.00 0.00 0.00 96 1023.3
20260904233830 69 231 0.0 0.0 0.00 0.00 0.00 96 1023.3
20260904233722 69 231 0.0 0.0 0.00 0.00 0.00 96 1023.2
20260904233429 69 231 0.0 0.0 0.00 0.00 0.00 96 1023.3
20260904233244 69 231 0.0 0.0 0.00 0.00 0.00 96 1023.3
20260904233141 69 231 0.0 0.0 0.00 0.00 0.00 96 1023.2
20260904233114 69 231 0.0 0.0 0.00 0.00 0.00 96 1023.3
20260904232643 69 231 0.0 0.0 0.00 0.00 0.00 96 1023.3
20260904232547 69 231 0.0 0.0 0.00 0.00 0.00 96 1023.3
20260904232111 69 231 0.0 0.0 0.00 0.00 0.00 96 1023.3
20260904231748 71 250 2.0 8.0 0.00 0.00 0.00 91 1023.1
20260904231715 69 231 0.0 0.0 0.00 0.00 0.00 96 1023.3
20260904231606 69 231 0.0 0.0 0.00 0.00 0.00 96 1023.3
20260904231511 69 231 0.0 0.0 0.00 0.00 0.00 96 1023.3
20260904231323 69 231 0.0 0.0 0.00 0.00 0.00 96 1023.3
20260904231214 69 231 0.0 0.0 0.00 0.00 0.00 96 1023.3
20260904231150 69 231 0.0 0.0 0.00 0.00 0.00 96 1023.3
20260904231030 69 231 0.0 0.0 0.00 0.00 0.00 96 1023.2
20260904230925 69 231 0.0 0.0 0.00 0.00 0.00 96 1023.2
20260904230813 69 231 0.0 0.0 0.00 0.00 0.00 96 1023.1
20260904230732 69 231 0.0 0.0 0.00 0.00 0.00 96 1023.3
20260904230414 69 231 0.0 0.0 0.00 0.00 0.00 96 1023.2
20260904230343 69 231 0.0 0.0 0.00 0.00 0.00 96 1023.2
20260904230247 69 231 0.0 0.0 0.00 0.00 0.00 96 1023.2
20260904230153 69 231 0.0 0.0 0.00 0.00 0.00 96 1023.3
20260904230053 69 231 0.0 0.0 0.00 0.00 0.00 95 1023.2
20260904225949 69 231 0.0 0.0 0.00 0.00 0.00 95 1023.2
20260904225922 69 231 0.0 0.0 0.00 0.00 0.00 95 1023.2
20260904225900 69 231 0.0 0.0 0.00 0.00 0.00 95 1023.2
20260904225757 69 231 0.0 0.0 0.00 0.00 0.00 95 1023.2
20260904225715 69 231 0.0 0.0 0.00 0.00 0.00 95 1023.2
20260904225633 69 231 0.0 0.0 0.00 0.00 0.00 95 1023.2
20260904225542 69 231 0.0 0.0 0.00 0.00 0.00 95 1023.3
20260904225507 69 231 0.0 0.0 0.00 0.00 0.00 95 1023.3
20260904225445 69 231 0.0 0.0 0.00 0.00 0.00 95 1023.3
20260904224849 69 231 0.0 0.0 0.00 0.00 0.00 95 1023.2
20260904224807 69 231 0.0 0.0 0.00 0.00 0.00 95 1023.3
20260904224719 69 231 0.0 0.0 0.00 0.00 0.00 95 1023.2
20260904224406 69 231 0.0 1.0 0.00 0.00 0.00 95 1023.2
20260904224315 69 231 0.0 1.0 0.00 0.00 0.00 95 1023.2
20260904224011 69 231 0.0 1.0 0.00 0.00 0.00 95 1023.2
20260904223935 69 231 0.0 1.0 0.00 0.00 0.00 95 1023.2
20260904223830 69 231 0.0 1.0 0.00 0.00 0.00 95 1023.2
20260904223802 70 231 0.0 1.0 0.00 0.00 0.00 95 1023.1
20260904223415 70 250 0.0 2.0 0.00 0.00 0.00 95 1023.1
20260904223331 69 250 0.0 2.0 0.00 0.00 0.00 95 1023.2
20260904223318 69 250 0.0 2.0 0.00 0.00 0.00 95 1023.2
20260904223231 70 250 0.0 2.0 0.00 0.00 0.00 95 1023.3
20260904223114 70 250 0.0 2.0 0.00 0.00 0.00 95 1023.3
20260904223049 70 250 0.0 2.0 0.00 0.00 0.00 95 1023.2
20260904222952 70 274 0.0 0.0 0.00 0.00 0.00 95 1023.3
20260904222104 70 274 0.0 1.0 0.00 0.00 0.00 94 1023.2
20260904221952 70 274 0.0 1.0 0.00 0.00 0.00 94 1023.2
20260904221909 70 274 0.0 1.0 0.00 0.00 0.00 94 1023.0
20260904221508 70 238 0.0 1.0 0.00 0.00 0.00 94 1023.1
20260904221448 70 238 0.0 1.0 0.00 0.00 0.00 94 1023.1
20260904221353 70 238 0.0 1.0 0.00 0.00 0.00 94 1023.2
20260904221200 70 233 0.0 0.0 0.00 0.00 0.00 94 1023.0
20260904221115 70 233 0.0 0.0 0.00 0.00 0.00 94 1023.1
20260904221009 70 233 0.0 0.0 0.00 0.00 0.00 94 1023.1
20260904220937 70 233 0.0 0.0 0.00 0.00 0.00 94 1023.2
20260904220904 70 233 0.0 0.0 0.00 0.00 0.00 93 1023.2
20260904220758 70 233 0.0 0.0 0.00 0.00 0.00 93 1023.2
20260904220704 70 233 0.0 0.0 0.00 0.00 0.00 93 1023.2
20260904220612 70 233 0.0 0.0 0.00 0.00 0.00 93 1023.2
20260904220516 70 233 0.0 5.0 0.00 0.00 0.00 93 1023.2
20260904220448 70 233 0.0 7.0 0.00 0.00 0.00 93 1023.2
20260904220429 70 233 0.0 7.0 0.00 0.00 0.00 93 1023.2
20260904220346 70 233 0.0 7.0 0.00 0.00 0.00 93 1023.2
20260904220301 70 233 0.0 7.0 0.00 0.00 0.00 93 1023.3
20260904215953 70 233 2.0 7.0 0.00 0.00 0.00 93 1023.3
20260904215830 70 201 0.0 7.0 0.00 0.00 0.00 93 1023.3
20260904215740 70 232 0.0 8.0 0.00 0.00 0.00 92 1023.3
20260904215657 70 228 1.0 8.0 0.00 0.00 0.00 92 1023.3
20260904215540 70 244 2.0 9.0 0.00 0.00 0.00 92 1023.3
20260904215408 70 244 3.0 9.0 0.00 0.00 0.00 92 1023.3
20260904215223 71 241 3.0 9.0 0.00 0.00 0.00 92 1023.3
20260904215048 71 244 4.0 13.0 0.00 0.00 0.00 92 1023.3
20260904214947 71 257 4.0 13.0 0.00 0.00 0.00 92 1023.3
20260904214904 71 228 2.0 13.0 0.00 0.00 0.00 92 1023.2
20260904214720 71 244 2.0 13.0 0.00 0.00 0.00 92 1023.3
20260904214525 71 250 3.0 13.0 0.00 0.00 0.00 92 1023.3
20260904214340 71 278 8.0 13.0 0.00 0.00 0.00 92 1023.2
20260904213904 71 269 2.0 9.0 0.00 0.00 0.00 91 1023.2
20260904213423 71 243 1.0 7.0 0.00 0.00 0.00 91 1023.1
20260904213250 71 254 2.0 7.0 0.00 0.00 0.00 91 1023.1
20260904213246 71 254 2.0 7.0 0.00 0.00 0.00 91 1023.1
20260904212722 71 266 3.0 8.0 0.00 0.00 0.00 91 1023.0
20260904212635 71 258 4.0 8.0 0.00 0.00 0.00 91 1023.0
20260904212533 71 271 4.0 8.0 0.00 0.00 0.00 91 1023.1
20260904212400 71 255 3.0 8.0 0.00 0.00 0.00 91 1023.0
20260904212213 71 281 3.0 9.0 0.00 0.00 0.00 91 1023.0
20260904212209 71 265 3.0 9.0 0.00 0.00 0.00 91 1023.0
20260904212048 71 254 1.0 9.0 0.00 0.00 0.00 91 1022.9
20260904211758 72 293 2.0 9.0 0.00 0.00 0.00 91 1023.0
20260904211318 72 284 4.0 9.0 0.00 0.00 0.00 90 1022.8
20260904210923 72 248 3.0 8.0 0.00 0.00 0.00 90 1022.7
20260904210736 72 231 3.0 8.0 0.00 0.00 0.00 90 1022.8
20260904210603 72 275 2.0 8.0 0.00 0.00 0.00 90 1022.6
20260904210521 72 250 3.0 8.0 0.00 0.00 0.00 90 1022.7
20260904210424 72 250 4.0 8.0 0.00 0.00 0.00 90 1022.6
20260904210238 72 270 3.0 8.0 0.00 0.00 0.00 90 1022.6
20260904210118 72 268 2.0 8.0 0.00 0.00 0.00 90 1022.6
20260904210057 72 271 2.0 8.0 0.00 0.00 0.00 90 1022.6
20260904205916 72 242 1.0 8.0 0.00 0.00 0.00 90 1022.6
20260904205744 72 212 1.0 8.0 0.00 0.00 0.00 90 1022.5
20260904205718 72 212 2.0 8.0 0.00 0.00 0.00 90 1022.4
20260904205615 73 247 4.0 8.0 0.00 0.00 0.00 89 1022.5
20260904205426 73 256 3.0 9.0 0.00 0.00 0.00 89 1022.4
20260904205309 73 244 3.0 9.0 0.00 0.00 0.00 89 1022.4
20260904205239 73 259 3.0 9.0 0.00 0.00 0.00 89 1022.4
20260904205053 73 235 4.0 9.0 0.00 0.00 0.00 89 1022.4
20260904204629 73 247 5.0 9.0 0.00 0.00 0.00 89 1022.4
20260904204130 73 225 6.0 10.0 0.00 0.00 0.00 88 1022.3
20260904204059 73 280 6.0 10.0 0.00 0.00 0.00 88 1022.3
20260904203921 73 242 4.0 10.0 0.00 0.00 0.00 88 1022.3
20260904203742 74 255 4.0 10.0 0.00 0.00 0.00 88 1022.1
20260904203344 74 244 5.0 10.0 0.00 0.00 0.00 88 1022.1
20260904203153 74 269 5.0 11.0 0.00 0.00 0.00 87 1022.1
20260904203036 74 240 5.0 11.0 0.00 0.00 0.00 87 1022.0
20260904203004 74 292 5.0 11.0 0.00 0.00 0.00 87 1022.1
20260904202829 74 243 6.0 11.0 0.00 0.00 0.00 87 1021.9
20260904202644 74 273 6.0 11.0 0.00 0.00 0.00 86 1021.9
20260904202613 74 242 6.0 11.0 0.00 0.00 0.00 86 1021.9
20260904202457 74 234 6.0 11.0 0.00 0.00 0.00 86 1021.9
20260904202315 74 267 6.0 11.0 0.00 0.00 0.00 85 1021.8
20260904201834 75 241 5.0 13.0 0.00 0.00 0.00 84 1021.8
20260904201655 75 242 5.0 13.0 0.00 0.00 0.00 83 1021.7
20260904201620 75 234 6.0 13.0 0.00 0.00 0.00 83 1021.7
20260904201504 75 259 6.0 13.0 0.00 0.00 0.00 83 1021.6
20260904201120 76 237 7.0 13.0 0.00 0.00 0.00 83 1021.7
20260904201046 76 250 7.0 13.0 0.00 0.00 0.00 82 1021.8
20260904195336 76 250 6.0 10.0 0.00 0.00 0.00 79 1021.2
20260904195310 76 246 7.0 10.0 0.00 0.00 0.00 79 1021.2
20260904195143 77 273 6.0 11.0 0.00 0.00 0.00 78 1021.2
20260904195000 77 259 7.0 11.0 0.00 0.00 0.00 77 1021.1
20260904194854 77 280 5.0 11.0 0.00 0.00 0.00 77 1021.0
20260904194814 77 280 5.0 11.0 0.00 0.00 0.00 76 1021.0
20260904194629 77 283 6.0 11.0 0.00 0.00 0.00 76 1020.9
20260904194444 77 311 8.0 11.0 0.00 0.00 0.00 75 1020.9
20260904194427 77 269 7.0 11.0 0.00 0.00 0.00 75 1020.9
20260904194254 78 244 5.0 9.0 0.00 0.00 0.00 75 1020.9
20260904194112 78 255 5.0 9.0 0.00 0.00 0.00 74 1020.8
20260904194011 78 248 5.0 9.0 0.00 0.00 0.00 73 1020.7
20260904193923 78 238 5.0 9.0 0.00 0.00 0.00 73 1020.7
20260904193740 78 200 5.0 9.0 0.00 0.00 0.00 72 1020.6
20260904193556 78 252 4.0 9.0 0.00 0.00 0.00 72 1020.5
20260904193545 78 248 6.0 9.0 0.00 0.00 0.00 72 1020.5
20260904193401 78 262 4.0 9.0 0.00 0.00 0.00 71 1020.5
20260904193209 79 263 3.0 6.0 0.00 0.00 0.00 70 1020.4
20260904193110 79 265 3.0 6.0 0.00 0.00 0.00 69 1020.3
20260904192536 79 263 4.0 8.0 0.00 0.00 0.00 68 1020.2
20260904192408 79 239 3.0 9.0 0.00 0.00 0.00 67 1020.2
20260904192229 79 234 4.0 9.0 0.00 0.00 0.00 67 1020.1
20260904191742 80 240 6.0 9.0 0.00 0.00 0.00 66 1020.1
20260904191550 80 272 5.0 9.0 0.00 0.00 0.00 65 1020.1
20260904191416 80 275 4.0 8.0 0.00 0.00 0.00 65 1019.9
20260904191018 80 257 4.0 8.0 0.00 0.00 0.00 64 1019.8
20260904190435 81 292 4.0 8.0 0.00 0.00 0.00 63 1019.7
20260904190431 81 292 4.0 8.0 0.00 0.00 0.00 63 1019.7
20260904190247 81 270 5.0 8.0 0.00 0.00 0.00 63 1019.7
20260904190107 81 252 4.0 10.0 0.00 0.00 0.00 62 1019.7
20260904190016 81 291 4.0 11.0 0.00 0.00 0.00 62 1019.7
20260904185917 81 273 4.0 11.0 0.00 0.00 0.00 62 1019.6
20260904185732 82 267 5.0 11.0 0.00 0.00 0.00 61 1019.7
20260904185552 82 250 4.0 11.0 0.00 0.00 0.00 61 1019.6
20260904185542 82 263 4.0 11.0 0.00 0.00 0.00 61 1019.6
20260904185358 82 263 7.0 11.0 0.00 0.00 0.00 60 1019.7
20260904185217 82 265 5.0 11.0 0.00 0.00 0.00 60 1019.6
20260904185124 82 257 5.0 9.0 0.00 0.00 0.00 59 1019.7
20260904184715 83 279 5.0 9.0 0.00 0.00 0.00 58 1019.5
20260904184537 83 246 5.0 10.0 0.00 0.00 0.00 58 1019.4
20260904184524 83 246 5.0 10.0 0.00 0.00 0.00 58 1019.4
20260904184338 83 251 4.0 10.0 0.00 0.00 0.00 57 1019.5
20260904184153 83 257 5.0 10.0 0.00 0.00 0.00 57 1019.4
20260904184111 83 259 5.0 10.0 0.00 0.00 0.00 57 1019.4
20260904184005 83 273 6.0 10.0 0.00 0.00 0.00 56 1019.5
20260904183514 84 248 6.0 9.0 0.00 0.00 0.00 55 1019.5
20260904183501 84 246 6.0 9.0 0.00 0.00 0.00 55 1019.6
20260904183315 84 268 6.0 9.0 0.00 0.00 0.00 55 1019.4
20260904183130 84 285 6.0 9.0 0.00 0.00 0.00 55 1019.4
20260904182724 84 279 7.0 9.0 0.00 0.00 0.00 54 1019.4
20260904182546 85 281 6.0 9.0 0.00 0.00 0.00 54 1019.4
20260904182422 85 248 6.0 9.0 0.00 0.00 0.00 54 1019.4
20260904182359 85 248 6.0 9.0 0.00 0.00 0.00 53 1019.4
20260904181814 85 263 5.0 9.0 0.00 0.00 0.00 53 1019.4
20260904181736 85 254 6.0 9.0 0.00 0.00 0.00 52 1019.4
20260904181622 85 257 7.0 9.0 0.00 0.00 0.00 52 1019.3
20260904181442 85 267 6.0 9.0 0.00 0.00 0.00 51 1019.3
20260904181325 86 265 6.0 9.0 0.00 0.00 0.00 51 1019.3
20260904181254 86 253 6.0 9.0 0.00 0.00 0.00 51 1019.3
20260904181110 86 252 6.0 9.0 0.00 0.00 0.00 50 1019.3
20260904180935 86 252 5.0 9.0 0.00 0.00 0.00 50 1019.3
20260904180859 86 248 4.0 8.0 0.00 0.00 0.00 49 1019.3
20260904180741 87 240 4.0 7.0 0.00 0.00 0.00 49 1019.2
20260904180549 87 236 4.0 7.0 0.00 0.00 0.00 49 1019.2
20260904180433 87 285 3.0 9.0 0.00 0.00 0.00 48 1019.2
20260904180408 87 251 3.0 9.0 0.00 0.00 0.00 48 1019.1
20260904180220 87 256 5.0 9.0 0.00 0.00 0.00 47 1019.2
20260904180038 87 288 5.0 9.0 0.00 0.00 0.00 47 1019.1
20260904180001 87 268 4.0 9.0 0.00 0.00 0.00 46 1019.1
20260904175850 87 261 5.0 9.0 0.00 0.00 0.00 47 1019.1
20260904175709 88 259 6.0 9.0 0.00 0.00 0.00 46 1019.1
20260904175551 88 265 5.0 8.0 0.00 0.00 0.00 46 1019.1
20260904175513 88 281 5.0 8.0 0.00 0.00 0.00 45 1019.1
20260904175333 88 298 5.0 8.0 0.00 0.00 0.00 45 1019.0
20260904175142 88 274 5.0 8.0 0.00 0.00 0.00 45 1019.1
20260904175124 88 279 4.0 8.0 0.00 0.00 0.00 45 1019.1
20260904174700 88 248 5.0 9.0 0.00 0.00 0.00 45 1019.1
20260904174558 89 254 6.0 9.0 0.00 0.00 0.00 45 1019.1
20260904174515 89 267 6.0 9.0 0.00 0.00 0.00 44 1019.1
20260904174330 89 269 5.0 9.0 0.00 0.00 0.00 44 1019.0
20260904173951 89 267 7.0 12.0 0.00 0.00 0.00 45 1019.0
20260904173818 89 272 7.0 12.0 0.00 0.00 0.00 45 1019.0
20260904173633 89 259 4.0 12.0 0.00 0.00 0.00 45 1019.0
20260904173531 89 261 7.0 12.0 0.00 0.00 0.00 45 1019.0
20260904173447 89 267 8.0 12.0 0.00 0.00 0.00 45 1019.0
20260904173300 89 263 6.0 12.0 0.00 0.00 0.00 44 1019.1
20260904173113 90 279 6.0 10.0 0.00 0.00 0.00 45 1019.0
20260904173105 90 279 7.0 10.0 0.00 0.00 0.00 45 1019.0
20260904172238 91 300 6.0 9.0 0.00 0.00 0.00 45 1019.0
20260904172042 91 271 4.0 8.0 0.00 0.00 0.00 46 1019.0
20260904171902 91 243 3.0 8.0 0.00 0.00 0.00 46 1019.0
20260904171509 91 228 4.0 9.0 0.00 0.00 0.00 47 1019.0
20260904171423 91 244 5.0 10.0 0.00 0.00 0.00 47 1019.0
20260904171248 92 247 3.0 10.0 0.00 0.00 0.00 45 1018.9
20260904171107 92 252 4.0 10.0 0.00 0.00 0.00 45 1018.9
20260904170931 92 250 6.0 10.0 0.00 0.00 0.00 45 1019.0
20260904170748 92 267 5.0 10.0 0.00 0.00 0.00 44 1018.9
20260904170257 93 283 4.0 10.0 0.00 0.00 0.00 44 1018.9
20260904170106 93 243 4.0 10.0 0.00 0.00 0.00 43 1018.9
20260904165929 93 255 4.0 10.0 0.00 0.00 0.00 42 1019.0
20260904165736 93 244 3.0 8.0 0.00 0.00 0.00 42 1018.9
20260904165638 94 234 2.0 8.0 0.00 0.00 0.00 42 1018.9
20260904165549 94 257 2.0 8.0 0.00 0.00 0.00 41 1019.0
20260904165204 94 240 3.0 8.0 0.00 0.00 0.00 40 1018.9
20260904164730 94 232 5.0 8.0 0.00 0.00 0.00 39 1019.0
20260904164634 94 253 6.0 8.0 0.00 0.00 0.00 39 1018.9
20260904164541 94 254 4.0 8.0 0.00 0.00 0.00 38 1018.9
20260904164024 94 215 3.0 10.0 0.00 0.00 0.00 37 1018.9
20260904163852 94 225 3.0 10.0 0.00 0.00 0.00 38 1018.9
20260904163713 94 216 3.0 10.0 0.00 0.00 0.00 37 1018.9
20260904163614 94 245 2.0 10.0 0.00 0.00 0.00 37 1018.9
20260904163528 94 248 3.0 10.0 0.00 0.00 0.00 38 1018.8
20260904163358 94 243 6.0 11.0 0.00 0.00 0.00 37 1018.8
20260904163131 94 257 3.0 11.0 0.00 0.00 0.00 37 1018.8
20260904162955 95 236 4.0 11.0 0.00 0.00 0.00 37 1018.8
20260904162539 95 274 5.0 11.0 0.00 0.00 0.00 37 1018.9
20260904162401 95 251 6.0 11.0 0.00 0.00 0.00 37 1019.0
20260904162200 95 242 5.0 11.0 0.00 0.00 0.00 36 1018.9
20260904161657 95 238 4.0 12.0 0.00 0.00 0.00 38 1018.9
20260904161602 95 242 6.0 14.0 0.00 0.00 0.00 37 1018.9
20260904161510 95 306 8.0 14.0 0.00 0.00 0.00 35 1019.0
20260904161330 95 269 6.0 14.0 0.00 0.00 0.00 35 1018.9
20260904161129 95 275 7.0 14.0 0.00 0.00 0.00 35 1018.8
20260904160950 95 263 9.0 14.0 0.00 0.00 0.00 36 1018.8
20260904160814 95 271 4.0 13.0 0.00 0.00 0.00 36 1018.8
20260904160345 96 253 3.0 12.0 0.00 0.00 0.00 37 1018.8
20260904160025 96 232 4.0 12.0 0.00 0.00 0.00 37 1018.8
20260904155847 96 236 4.0 12.0 0.00 0.00 0.00 37 1018.8
20260904155659 96 245 4.0 12.0 0.00 0.00 0.00 37 1018.8
20260904155603 96 241 6.0 12.0 0.00 0.00 0.00 36 1018.8
20260904155124 96 254 6.0 12.0 0.00 0.00 0.00 35 1018.7
20260904154938 96 235 5.0 9.0 0.00 0.00 0.00 35 1018.8
20260904154805 96 232 3.0 8.0 0.00 0.00 0.00 35 1018.7
20260904154619 97 206 4.0 8.0 0.00 0.00 0.00 34 1018.7
20260904154524 97 234 4.0 8.0 0.00 0.00 0.00 34 1018.8
20260904154436 97 234 4.0 8.0 0.00 0.00 0.00 34 1018.7
20260904154259 97 254 3.0 8.0 0.00 0.00 0.00 34 1018.7
20260904154110 97 215 4.0 8.0 0.00 0.00 0.00 33 1018.7
20260904153928 97 233 2.0 4.0 0.00 0.00 0.00 33 1018.8
20260904153759 97 224 2.0 4.0 0.00 0.00 0.00 33 1018.7
20260904153335 97 204 3.0 7.0 0.00 0.00 0.00 33 1018.7
20260904153156 97 205 3.0 7.0 0.00 0.00 0.00 33 1018.7